Погода в Токарево

Россия / Республика Крым     45°17′02″N   35°09′08″E
темп.,
°C
ветер,
м/с
пор.,
м/с
влажн.,
%
обл.,
%
осадки,
мм/ч
давл.,
гПа
погр.,
м
14 апреля, ср
ср1400:00+7ююв34843 0.0 102068
03:00+7ююв348096 0.0 101968
06:00+6ююз338323 0.0 101854
09:00+11ююв68640 0.0 1018447
12:00+13ююв895725 0.0 1017681
15:00+12ююв81062100 0.0 1016619
18:00+10ю7978100 0.2 1016443
21:00+8ююв599136 0.9 1016254
15 апреля, чт
чт1500:00+8ююв7129014 0.0 1014261
03:00+8ююв488861 0.0 1014141
06:00+8юз339215 0.6 101448
09:00+11юз127875 1.7 1015335
12:00+14ссв136553 0.4 1015854
15:00+14сз455892 1.5 1015814
18:00+12з586383 0.0 1016544
21:00+8з377890 0.0 1017217
16 апреля, пт
пт1600:00+7юз248219 0.0 1017113
03:00+6юз118728 0.0 101729
06:00+6юз11862 0.0 101743
09:00+10ю12645 0.0 1018395
12:00+13юв335787 0.0 10181070
15:00+13зюз1358100 0.2 10181196
18:00+12юз356795 0.7 1018418
21:00+8з5107725 0.8 1020378
17 апреля, сб
сб1700:00+6з36871 0.0 1021193
03:00+5зсз35875 0.0 1022128
06:00+4зсз23896 0.0 102274
09:00+8зсз227151 0.0 1023381
12:00+11св2260100 0.0 1022980
15:00+12в5359100 0.0 1022962
18:00+11юв4462100 0.0 1022339
21:00+8ююв3575100 0.0 102289
18 апреля, вс
вс1800:00+7юв2379100 0.0 102142
03:00+8в2475100 0.0 1020117
06:00+8всв3776100 0.1 1019258
09:00+9всв5875100 0.1 1018414
12:00+11св5578100 0.0 1019524
15:00+10св5784100 0.1 1019404
18:00+9св5793100 0.4 1019322
21:00+10всв2575100 0.0 1020169